Waarnemingen

Advertentie
Mijn weer
Pertusato, Frankrijk (7770): temperatuur & dauwpunt: 10.10.2019 19:00:00 - 16.10.2019 19:00:00 (CEST)Pertusato, Frankrijk (7770): windsnelheid & windstoten: 10.10.2019 19:00:00 - 16.10.2019 19:00:00 (CEST)Pertusato, Frankrijk (7770): windrichting: 10.10.2019 19:00:00 - 16.10.2019 19:00:00 (CEST)Pertusato, Frankrijk (7770): luchtdruk: 10.10.2019 19:00:00 - 16.10.2019 19:00:00 (CEST)Pertusato, Frankrijk (7770): zicht: 10.10.2019 19:00:00 - 16.10.2019 19:00:00 (CEST)Pertusato, Frankrijk (7770): neerslag: 10.10.2019 19:00:00 - 16.10.2019 19:00:00 (CEST)
Datum & Tijd tt [°C] td [°C] ff [km/u] ff [kn] fx [km/u] fx [kn] dd ppp [hPa] vv [km] rr [mm]
16.10.2019 19:00:00 18,7 12,7 20 11 44 24 W 1018,7 - 0,0
16.10.2019 18:00:00 19,6 12,1 32 17 52 28 W 1018,4 - 0,0
16.10.2019 17:00:00 20,2 12,4 36 19 56 30 W 1018,1 - 0,0
16.10.2019 16:00:00 20,9 12,1 34 19 67 36 W 1018,0 - 0,0
16.10.2019 15:00:00 20,7 12,1 43 23 72 39 W 1017,7 - 0,0
16.10.2019 14:00:00 20,6 12,3 42 23 67 36 W 1017,8 20 0,0
16.10.2019 13:00:00 20,4 11,6 40 22 66 36 W 1018,5 - 0,0
16.10.2019 12:00:00 20,2 11,4 43 23 79 42 W 1018,5 - 0,0
16.10.2019 11:00:00 19,6 11,6 45 25 68 37 W 1017,9 - 0,0
16.10.2019 10:00:00 19,4 10,9 36 19 57 31 WNW 1018,1 - 0,0
16.10.2019 09:00:00 18,2 11,0 38 20 65 35 WNW 1017,4 - 0,0
16.10.2019 08:00:00 17,8 11,1 35 19 62 33 WNW 1016,9 - 0,0
16.10.2019 07:00:00 17,6 10,7 29 16 54 29 WNW 1016,9 - 0,0
16.10.2019 06:00:00 18,1 11,4 34 19 64 34 WNW 1016,4 - 0,0
16.10.2019 05:00:00 18,0 10,6 38 21 64 34 WNW 1016,2 - 0,0
16.10.2019 04:00:00 18,2 11,5 40 22 72 39 WNW 1016,1 - 0,0
16.10.2019 03:00:00 18,1 11,4 42 23 73 39 W 1015,7 - 0,0
16.10.2019 02:00:00 18,3 12,1 42 23 76 41 W 1015,8 - 0,0
16.10.2019 01:00:00 18,0 12,2 44 24 85 46 WNW 1015,5 - 0,0
16.10.2019 00:00:00 18,3 12,7 49 26 80 43 W 1014,9 - 0,0
15.10.2019 23:00:00 18,3 12,9 45 25 77 42 W 1015,6 - 0,0
15.10.2019 22:00:00 18,7 13,3 54 29 79 43 W 1015,1 - 0,0
15.10.2019 21:00:00 18,8 14,1 54 29 79 43 W 1013,8 - 0,0
15.10.2019 20:00:00 18,8 15,1 57 31 82 44 W 1013,7 12 0,0
15.10.2019 19:00:00 19,1 15,2 53 29 81 44 W 1012,8 - 0,0
15.10.2019 18:00:00 19,6 15,9 52 28 69 38 W 1012,5 - 0,0
15.10.2019 17:00:00 20,4 16,8 42 23 67 36 W 1012,7 - 0,0
15.10.2019 16:00:00 21,2 17,6 44 24 - - W 1012,1 - -
15.10.2019 15:00:00 22,7 19,5 40 21 70 38 WZW 1010,4 - 0,0
15.10.2019 14:00:00 23,2 19,1 35 19 67 36 WZW 1011,7 14 0,0
15.10.2019 13:00:00 23,9 16,2 12 6 24 13 WZW 1013,0 - 0,0
15.10.2019 12:00:00 24,4 15,6 9 5 16 9 W 1013,8 - 0,0
15.10.2019 11:00:00 23,5 16,0 10 5 18 10 O 1013,5 14 0,0
15.10.2019 10:00:00 22,1 17,9 13 7 20 11 ONO 1013,7 - 0,0
15.10.2019 09:00:00 20,4 18,7 10 5 20 11 ONO 1013,9 - 0,0
15.10.2019 08:00:00 18,8 17,6 18 10 22 12 ONO 1013,2 15 0,0
15.10.2019 07:00:00 19,1 18,4 15 8 20 11 NO 1013,6 - 0,0
15.10.2019 06:00:00 19,1 18,4 13 7 17 9 ONO 1014,2 - 0,0
15.10.2019 05:00:00 19,3 18,5 13 7 18 10 ONO 1014,4 15 0,2
15.10.2019 04:00:00 19,6 18,6 11 6 23 13 ONO 1015,1 - 0,0
15.10.2019 03:00:00 20,1 18,9 16 9 24 13 O 1015,1 - 0,0
15.10.2019 02:00:00 20,0 19,0 16 9 27 14 O 1015,8 - 0,0
15.10.2019 01:00:00 20,3 19,5 16 9 27 15 O 1016,0 - 0,0
15.10.2019 00:00:00 20,6 19,6 19 10 33 18 O 1016,3 - 0,0
14.10.2019 23:00:00 21,0 20,0 22 12 42 23 ONO 1016,4 - 0,0
14.10.2019 22:00:00 21,2 20,0 24 13 41 22 ONO 1016,3 - 0,0
14.10.2019 21:00:00 21,4 20,2 24 13 41 22 ONO 1016,5 - 0,0
14.10.2019 20:00:00 21,3 20,3 23 12 46 25 ONO 1016,5 15 0,0
14.10.2019 19:00:00 21,9 20,4 26 14 43 23 ONO 1016,5 - 0,0
14.10.2019 18:00:00 22,8 20,5 26 14 44 24 ONO 1016,3 - 0,0
14.10.2019 17:00:00 - - - - - - - - - -
14.10.2019 16:00:00 - - - - - - - - - -
14.10.2019 15:00:00 - - - - - - - - - -
14.10.2019 14:00:00 - - - - - - - - - -
14.10.2019 13:00:00 - - - - - - - - - -
14.10.2019 12:00:00 - - - - - - - - - -
14.10.2019 11:00:00 - - - - - - - - - -
14.10.2019 10:00:00 - - - - - - - - - -
14.10.2019 09:00:00 21,6 21,1 18 10 29 16 O 1019,4 - 0,0
14.10.2019 08:00:00 20,6 20,3 16 9 26 14 O 1018,8 12 0,0
14.10.2019 07:00:00 20,4 19,9 17 9 28 15 O 1018,9 - 0,2
14.10.2019 06:00:00 20,7 20,2 18 10 26 14 O 1019,0 - 0,0
14.10.2019 05:00:00 20,7 20,2 16 9 27 15 ONO 1019,1 - 0,0
14.10.2019 04:00:00 20,8 20,3 16 9 26 14 ONO 1019,4 - 0,0
14.10.2019 03:00:00 20,8 20,3 18 10 29 16 ONO 1019,6 - 0,0
14.10.2019 02:00:00 20,4 19,7 16 9 27 15 ONO 1019,9 - 0,0
14.10.2019 01:00:00 20,9 20,1 18 10 32 17 ONO 1020,3 - 0,0
14.10.2019 00:00:00 21,2 20,4 19 10 38 21 ONO 1020,5 - 0,0
13.10.2019 23:00:00 21,1 20,3 22 12 34 19 ONO 1020,4 - 0,0
13.10.2019 22:00:00 21,2 20,2 19 10 34 19 ONO 1020,7 - 0,0
13.10.2019 21:00:00 21,1 20,1 22 12 40 22 ONO 1020,5 - 0,0
13.10.2019 20:00:00 21,2 20,2 21 11 37 20 ONO 1020,3 - 0,0
13.10.2019 19:00:00 20,9 19,7 21 12 39 21 ONO 1020,2 - 0,0
13.10.2019 18:00:00 21,6 19,7 29 15 72 39 NO 1020,2 - 0,0
13.10.2019 17:00:00 22,0 19,4 22 12 38 21 ONO 1020,2 - 0,0
13.10.2019 16:00:00 22,1 19,6 23 13 39 21 NO 1020,6 - 0,0
13.10.2019 15:00:00 22,6 19,4 24 13 42 23 ONO 1021,3 - 0,0
13.10.2019 14:00:00 22,2 19,4 27 15 44 24 ONO 1020,9 10 0,0
13.10.2019 13:00:00 22,5 19,1 27 15 44 24 ONO 1021,8 - 0,0
13.10.2019 12:00:00 22,4 19,0 26 14 44 24 ONO 1022,0 - 0,0
13.10.2019 11:00:00 23,2 18,9 27 15 44 24 ONO 1021,8 20 0,0
13.10.2019 10:00:00 22,7 18,5 21 11 40 22 ONO 1021,9 - 0,0
13.10.2019 09:00:00 20,4 19,6 23 13 39 21 ONO 1021,9 - 0,0
13.10.2019 08:00:00 19,6 18,9 23 12 36 19 ONO 1021,5 - 0,0
13.10.2019 07:00:00 19,4 18,7 22 12 38 21 ONO 1021,1 - 0,0
13.10.2019 06:00:00 19,3 18,5 21 11 36 19 ONO 1021,1 - 0,0
13.10.2019 05:00:00 19,4 18,4 20 11 31 17 ONO 1021,4 18 0,0
13.10.2019 04:00:00 19,5 18,5 19 10 30 16 ONO 1021,8 - 0,0
13.10.2019 03:00:00 19,7 18,4 17 9 27 15 NO 1022,0 - 0,0
13.10.2019 02:00:00 19,5 17,5 16 9 30 16 ONO 1022,1 - 0,0
13.10.2019 01:00:00 19,9 18,0 18 10 29 16 ONO 1022,2 - 0,0
13.10.2019 00:00:00 19,7 17,3 19 10 33 18 O 1022,6 - 0,0
12.10.2019 23:00:00 20,0 17,0 20 11 32 17 O 1022,2 - 0,0
12.10.2019 22:00:00 19,7 16,7 19 10 31 17 O 1022,2 - 0,0
12.10.2019 21:00:00 20,0 16,8 17 9 32 18 O 1022,4 - 0,0
12.10.2019 20:00:00 20,1 17,5 18 10 30 16 ONO 1022,3 20 0,0
12.10.2019 19:00:00 20,4 17,4 18 10 29 16 ONO 1021,9 - 0,0
12.10.2019 18:00:00 21,0 17,4 17 9 29 16 ONO 1021,6 - 0,0
12.10.2019 17:00:00 22,2 17,3 18 10 29 15 ONO 1021,6 - 0,0
12.10.2019 16:00:00 23,6 17,6 18 10 28 15 O 1022,0 - 0,0
12.10.2019 15:00:00 23,6 16,4 19 10 29 15 O 1022,2 - 0,0
12.10.2019 14:00:00 24,3 15,5 10 6 24 13 ONO 1022,3 20 0,0
12.10.2019 13:00:00 23,7 16,7 16 8 26 14 ONO 1022,9 - 0,0
12.10.2019 12:00:00 23,1 16,6 16 9 28 15 O 1023,3 - 0,0
12.10.2019 11:00:00 22,2 16,9 17 9 31 17 O 1023,2 20 0,0
12.10.2019 10:00:00 20,6 17,0 16 9 24 13 ONO 1023,0 - 0,0
12.10.2019 09:00:00 18,2 16,5 10 5 17 9 ONO 1022,5 - 0,0
12.10.2019 08:00:00 15,8 15,2 12 6 14 8 ONO 1022,3 20 0,0
12.10.2019 07:00:00 15,1 14,1 10 5 13 7 ONO 1022,3 - 0,2
12.10.2019 06:00:00 15,2 13,9 8 4 10 5 NO 1022,3 - 0,0
12.10.2019 05:00:00 16,0 14,2 6 3 8 4 NO 1022,2 20 0,0
12.10.2019 04:00:00 16,5 14,5 0 0 10 6 N 1022,5 - 0,0
12.10.2019 03:00:00 17,0 14,6 6 3 9 5 W 1022,6 - 0,0
12.10.2019 02:00:00 16,5 14,1 5 3 9 5 WNW 1022,8 - 0,0
12.10.2019 01:00:00 16,6 13,9 7 4 8 5 WNW 1022,8 - 0,0
12.10.2019 00:00:00 17,4 14,5 4 2 10 5 W 1023,0 - 0,0
11.10.2019 23:00:00 17,6 14,9 8 5 11 6 W 1022,9 - 0,0
11.10.2019 22:00:00 17,9 15,0 8 4 11 6 W 1022,6 - 0,0
11.10.2019 21:00:00 18,0 14,7 8 4 14 7 W 1022,3 - 0,0
11.10.2019 20:00:00 19,1 15,2 7 4 18 10 W 1021,9 20 0,0
11.10.2019 19:00:00 19,3 14,8 10 6 19 10 W 1021,6 - 0,0
11.10.2019 18:00:00 20,4 14,7 11 6 29 15 W 1021,5 - 0,0
11.10.2019 17:00:00 21,0 14,9 16 8 33 18 W 1021,5 20 0,0
11.10.2019 16:00:00 21,6 14,5 12 7 27 15 W 1021,5 - 0,0
11.10.2019 15:00:00 22,2 14,6 11 6 22 12 W 1021,9 - 0,0
11.10.2019 14:00:00 22,2 14,6 8 4 21 11 W 1022,4 - 0,0
11.10.2019 13:00:00 22,5 14,6 6 4 22 12 W 1022,7 - 0,0
11.10.2019 12:00:00 21,4 14,1 8 4 21 11 W 1022,9 - 0,0
11.10.2019 11:00:00 21,3 14,7 7 4 21 12 WNW 1022,9 25 0,0
11.10.2019 10:00:00 21,6 14,3 4 2 9 5 W 1022,5 - 0,0
11.10.2019 09:00:00 20,3 14,0 5 3 11 6 WNW 1022,0 - 0,0
11.10.2019 08:00:00 18,0 13,1 10 5 14 8 WNW 1021,2 18 0,0
11.10.2019 07:00:00 17,6 12,9 12 7 21 11 NW 1020,9 - 0,0
11.10.2019 06:00:00 17,7 13,0 12 7 24 13 WNW 1020,8 - 0,0
11.10.2019 05:00:00 17,9 13,0 18 10 25 14 WNW 1020,5 12 0,0
11.10.2019 04:00:00 17,8 13,1 18 10 27 15 WNW 1020,3 - 0,0
11.10.2019 03:00:00 17,5 12,8 16 8 28 15 WNW 1020,4 - 0,0
11.10.2019 02:00:00 18,5 13,8 22 12 41 22 W 1020,5 - 0,0
11.10.2019 01:00:00 18,6 13,7 29 16 39 21 W 1019,8 - 0,0
11.10.2019 00:00:00 17,9 13,4 21 12 31 17 W 1019,8 - 0,0
10.10.2019 23:00:00 17,7 12,8 21 11 37 20 W 1019,7 - 0,0
10.10.2019 22:00:00 17,8 12,5 23 12 55 30 WNW 1019,5 - 0,0
10.10.2019 21:00:00 18,6 12,6 32 18 55 30 W 1018,5 - 0,0
10.10.2019 20:00:00 18,6 12,6 35 19 61 33 W 1017,9 12 0,0
10.10.2019 19:00:00 18,8 12,1 43 23 77 42 W 1017,1 - 0,0

tt = temperatuur
td = dauwpunt
ff = windsnelheid
fx = windstoten
dd = windrichting
ppp = luchtdruk
vv = zicht
rr = neerslag

Weerstations in de omgeving